SP6PGH-13 Weather Reports


time (UTC)temp
C
wind
direction
speed
KPH
gust
KPH
rain 1hr
cm
rain 24hr
cm
rain mn
cm
humidity
%
barometer
mb
20260506224432 13 264 0.0 4.8 0.36 0.00 0.00 95 993.2
20260506222930 13 282 0.0 3.2 0.25 0.00 0.00 95 992.9
20260506221429 13 358 0.0 4.8 0.25 0.00 0.00 95 992.6
20260506215928 13 354 0.0 6.4 0.08 0.00 0.00 95 992.7
20260506214428 13 156 0.0 3.2 0.08 0.00 0.00 95 992.2
20260506212926 13 288 0.0 0.0 0.03 0.00 0.00 95 993.0
20260506211425 13 270 0.0 0.0 0.13 0.00 0.00 95 993.1
20260506205924 13 268 0.0 3.2 0.25 0.00 0.00 94 993.0
20260506204423 13 108 0.0 3.2 0.36 0.00 0.00 95 993.0
20260506202922 13 354 0.0 0.0 0.36 0.00 0.00 94 992.7
20260506201421 13 258 3.2 9.7 0.28 0.00 0.00 94 992.9
20260506195921 13 294 3.2 8.0 0.15 0.00 0.00 94 993.1
20260506194419 13 267 0.0 3.2 0.13 0.00 0.00 94 992.8
20260506192919 14 282 0.0 0.0 0.25 0.00 0.00 94 992.4
20260506185916 14 192 0.0 0.0 0.43 0.00 0.00 92 992.7
20260506184415 14 180 0.0 0.0 0.41 0.00 0.00 91 992.8
20260506182914 14 192 0.0 3.2 0.28 0.00 0.00 89 992.9
20260506181413 15 122 0.0 0.0 0.18 0.00 0.00 90 992.2
20260506175912 15 186 0.0 1.6 0.05 0.00 0.00 89 991.9
20260506174411 15 186 0.0 3.2 0.13 0.00 0.00 89 991.6
20260506172910 15 109 1.6 4.8 0.23 0.00 0.00 88 991.1
20260506171409 15 102 1.6 4.8 0.20 0.00 0.00 84 991.1
20260506165907 16 94 3.2 16.1 0.10 0.00 0.00 79 991.6
20260506164407 21 183 1.6 4.8 0.00 0.00 0.00 48 991.1
20260506162905 22 298 1.6 6.4 0.00 0.00 0.00 42 990.8
20260506161404 22 274 3.2 8.0 0.00 0.00 0.00 40 990.9
20260506155904 22 274 3.2 8.0 0.00 0.00 0.00 40 990.9
20260506154403 23 278 4.8 9.7 0.00 0.00 0.00 39 990.9
20260506152902 24 258 3.2 9.7 0.00 0.00 0.00 37 990.8
20260506151401 25 264 3.2 8.0 0.00 0.00 0.00 38 991.1
20260506145900 24 276 4.8 9.7 0.00 0.00 0.00 38 991.2
20260506142858 23 270 6.4 11.3 0.00 0.00 0.00 40 991.4
20260506141357 23 270 6.4 17.7 0.00 0.00 0.00 43 991.6
20260506135856 23 307 4.8 16.1 0.00 0.00 0.00 43 991.8
20260506134355 22 260 4.8 11.3 0.00 0.00 0.00 46 991.8
20260506132854 22 264 8.0 16.1 0.00 0.00 0.00 45 991.7
20260506131353 23 246 4.8 16.1 0.00 0.00 0.00 44 991.9
20260506125852 22 276 3.2 9.7 0.00 0.00 0.00 47 991.9
20260506124351 22 96 4.8 9.7 0.00 0.00 0.00 46 992.0
20260506122850 22 288 4.8 11.3 0.00 0.00 0.00 46 992.0
20260506121349 22 121 3.2 8.0 0.00 0.00 0.00 50 991.9
20260506115848 21 234 3.2 11.3 0.00 0.00 0.00 48 992.0
20260506114347 21 300 4.8 11.3 0.00 0.00 0.00 51 992.1
20260506112846 21 246 4.8 14.5 0.00 0.00 0.00 52 992.1
20260506111344 21 40 4.8 9.7 0.00 0.00 0.00 49 992.0
20260506105843 21 330 4.8 11.3 0.00 0.00 0.00 51 992.1
20260506104342 21 6 4.8 9.7 0.00 0.00 0.00 52 992.0
20260506102841 22 283 6.4 9.7 0.00 0.00 0.00 47 991.9
20260506101340 21 273 3.2 16.1 0.00 0.00 0.00 51 992.1
20260506095840 20 294 3.2 6.4 0.00 0.00 0.00 57 992.0
20260506094338 20 310 4.8 9.7 0.00 0.00 0.00 54 992.0
20260506092837 20 200 3.2 9.7 0.00 0.00 0.00 56 991.9
20260506091336 18 138 3.2 8.0 0.00 0.00 0.00 58 992.0
20260506085835 18 271 3.2 9.7 0.00 0.00 0.00 58 992.0
20260506084334 18 290 4.8 11.3 0.00 0.00 0.00 59 991.8
20260506082833 18 222 3.2 8.0 0.00 0.00 0.00 61 991.8
20260506081332 18 184 3.2 8.0 0.00 0.00 0.00 61 991.9
20260506072829 18 293 3.2 9.7 0.00 0.00 0.00 62 991.6
20260506071328 17 264 3.2 8.0 0.00 0.00 0.00 64 991.4
20260506061323 14 300 0.0 6.4 0.00 0.00 0.00 75 991.5
20260506051319 12 276 1.6 6.4 0.00 0.00 0.00 77 991.1
20260506044317 12 270 0.0 1.6 0.00 0.00 0.00 83 991.0
20260506042816 11 309 1.6 4.8 0.00 0.00 0.00 84 990.8
20260506041315 10 263 0.0 3.2 0.00 0.00 0.00 87 990.8
20260506035814 10 245 0.0 0.0 0.00 0.00 0.00 88 990.6
20260506034313 10 268 0.0 0.0 0.00 0.00 0.00 86 990.2
20260506032812 9 269 0.0 0.0 0.00 0.00 0.00 90 990.1
20260506025927 9 276 0.0 0.0 0.00 0.00 0.00 88 990.4
20260506024426 10 282 1.6 4.8 0.00 0.00 0.00 87 990.6
20260506022925 10 270 0.0 0.0 0.00 0.00 0.00 87 990.8
20260506021424 10 276 0.0 0.0 0.00 0.00 0.00 85 990.7
20260506015922 9 258 0.0 0.0 0.00 0.00 0.00 87 990.9
20260506014422 10 270 0.0 3.2 0.00 0.00 0.00 85 990.8
20260506012920 10 282 0.0 0.0 0.00 0.00 0.00 83 990.8
20260506011419 10 270 0.0 0.0 0.00 0.00 0.00 84 990.7
20260506005918 10 264 0.0 0.0 0.00 0.00 0.00 85 990.9
20260506004417 10 269 0.0 3.2 0.00 0.00 0.00 83 990.9
20260506002916 10 270 0.0 3.2 0.00 0.00 0.00 83 990.6
20260506001415 10 276 0.0 3.2 0.00 0.00 0.00 82 990.6
20260505235915 11 270 0.0 3.2 0.00 0.00 0.00 78 990.7
20260505234413 11 264 0.0 0.0 0.00 0.00 0.00 77 990.6
20260505232911 12 263 0.0 0.0 0.00 0.00 0.00 75 990.7
20260505231410 12 270 0.0 0.0 0.00 0.00 0.00 73 990.6
20260505225910 13 282 0.0 3.2 0.00 0.00 0.00 72 990.9